Simultaneous Nadir Overpasses (SNOs) Predictions

Prediction of SNOs between GOES-16 and NOAA-19 Satellite Orbit:

Table of predicted SNOs for the next 14.0 days since TLE Epoch: 6/11/2022
Index Date Time (GOES-16) GOES-16 Lat,Lon NOAA-19 Lat,Lon Distance(km) Time Diff (sec)
1 06/12/2022 00:51:26 -0.05, -75.19 -0.35, -76.42 140.57 80
2 06/13/2022 00:42:16 -0.05, -75.20 0.31, -73.53 189.27 80
3 06/15/2022 13:00:10 0.04, -75.22 0.78, -78.41 364.15 80
4 06/16/2022 12:50:59 0.03, -75.23 0.10, -75.52 34.02 80
5 06/17/2022 12:36:29 0.03, -75.23 -0.59, -72.64 296.36 80
6 06/20/2022 00:59:48 -0.03, -75.24 -0.59, -77.53 261.88 80
7 06/21/2022 00:45:18 -0.02, -75.25 0.14, -74.65 69.37 80
8 06/22/2022 00:33:28 -0.02, -75.27 0.81, -71.76 400.72 80
9 06/23/2022 13:08:29 0.02, -75.31 0.98, -79.51 478.86 80
10 06/24/2022 12:56:39 0.02, -75.33 0.29, -76.63 147.04 80
